Time,TemperatureF,DewpointF,PressureIn,WindDirection,WindDirectionDegrees,WindSpeedMPH,WindSpeedGustMPH,Humidity,HourlyPrecipIn,Conditions,Clouds,dailyrainin,SoftwareType,DateUTC
2013-07-29 00:02:00,63.0,58.0,30.10,North,0,0.0,6.0,84,0.00,,,0.00,,2013-07-29 04:02:00,
2013-07-29 00:12:00,63.0,58.0,30.10,WNW,295,1.0,8.0,84,0.00,,,0.00,,2013-07-29 04:12:00,
2013-07-29 00:22:00,63.0,58.0,30.11,WNW,298,1.0,8.0,84,0.00,,,0.00,,2013-07-29 04:22:00,
2013-07-29 00:32:00,63.0,58.0,30.11,WNW,298,1.0,8.0,84,0.00,,,0.00,,2013-07-29 04:32:00,
2013-07-29 00:43:00,62.0,57.0,30.12,NNW,338,1.0,7.0,85,0.00,,,0.00,,2013-07-29 04:43:00,
2013-07-29 00:53:00,61.0,57.0,30.12,WNW,300,2.0,5.0,86,0.00,,,0.00,,2013-07-29 04:53:00,
2013-07-29 01:02:00,61.0,57.0,30.12,WNW,300,2.0,5.0,86,0.00,,,0.00,,2013-07-29 05:02:00,
2013-07-29 01:12:00,61.0,57.0,30.12,North,0,0.0,6.0,87,0.00,,,0.00,,2013-07-29 05:12:00,
2013-07-29 01:22:00,60.0,56.0,30.12,North,0,0.0,2.0,88,0.00,,,0.00,,2013-07-29 05:22:00,
2013-07-29 01:32:00,60.0,56.0,30.12,North,0,0.0,2.0,88,0.00,,,0.00,,2013-07-29 05:32:00,
2013-07-29 01:42:00,60.0,57.0,30.12,North,0,0.0,3.0,89,0.00,,,0.00,,2013-07-29 05:42:00,
2013-07-29 01:53:00,60.0,57.0,30.12,NW,316,1.0,6.0,90,0.00,,,0.00,,2013-07-29 05:53:00,
2013-07-29 02:02:00,60.0,57.0,30.12,NW,316,1.0,6.0,90,0.00,,,0.00,,2013-07-29 06:02:00,
2013-07-29 02:12:00,60.0,57.0,30.12,NNW,331,2.0,6.0,90,0.00,,,0.00,,2013-07-29 06:12:00,
2013-07-29 02:22:00,60.0,57.0,30.11,NW,310,3.0,10.0,89,0.00,,,0.00,,2013-07-29 06:22:00,
2013-07-29 02:32:00,60.0,57.0,30.11,NW,310,3.0,10.0,89,0.00,,,0.00,,2013-07-29 06:32:00,
2013-07-29 02:43:00,59.0,56.0,30.11,NW,316,4.0,8.0,89,0.00,,,0.00,,2013-07-29 06:43:00,
2013-07-29 02:52:00,60.0,56.0,30.11,NW,304,5.0,12.0,87,0.00,,,0.00,,2013-07-29 06:52:00,
2013-07-29 03:02:00,60.0,56.0,30.11,NW,304,5.0,12.0,87,0.00,,,0.00,,2013-07-29 07:02:00,
2013-07-29 03:12:00,60.0,55.0,30.11,NW,325,7.0,13.0,85,0.00,,,0.00,,2013-07-29 07:12:00,
2013-07-29 03:23:00,59.0,54.0,30.11,WNW,298,7.0,14.0,85,0.00,,,0.00,,2013-07-29 07:23:00,
2013-07-29 03:33:00,59.0,54.0,30.11,WNW,298,7.0,14.0,85,0.00,,,0.00,,2013-07-29 07:33:00,
2013-07-29 03:43:00,59.0,54.0,30.11,NW,313,5.0,15.0,85,0.00,,,0.00,,2013-07-29 07:43:00,
2013-07-29 03:53:00,59.0,54.0,30.11,NW,316,5.0,13.0,85,0.00,,,0.00,,2013-07-29 07:53:00,
2013-07-29 04:02:00,59.0,54.0,30.11,NW,316,5.0,13.0,85,0.00,,,0.00,,2013-07-29 08:02:00,
2013-07-29 04:12:00,58.0,53.0,30.11,WNW,297,6.0,15.0,84,0.00,,,0.00,,2013-07-29 08:12:00,
2013-07-29 04:22:00,59.0,54.0,30.11,WNW,303,7.0,13.0,82,0.00,,,0.00,,2013-07-29 08:22:00,
2013-07-29 04:33:00,59.0,54.0,30.11,WNW,303,7.0,13.0,82,0.00,,,0.00,,2013-07-29 08:33:00,
2013-07-29 04:42:00,59.0,53.0,30.12,NW,310,5.0,15.0,81,0.00,,,0.00,,2013-07-29 08:42:00,
2013-07-29 04:52:00,59.0,54.0,30.11,WNW,303,7.0,13.0,82,0.00,,,0.00,,2013-07-29 08:52:00,
2013-07-29 05:02:00,59.0,54.0,30.11,WNW,303,7.0,13.0,82,0.00,,,0.00,,2013-07-29 09:02:00,
2013-07-29 05:12:00,58.0,53.0,30.12,North,360,4.0,9.0,83,0.00,,,0.00,,2013-07-29 09:12:00,
2013-07-29 05:22:00,57.0,52.0,30.13,WNW,300,5.0,11.0,83,0.00,,,0.00,,2013-07-29 09:22:00,
2013-07-29 05:33:00,57.0,52.0,30.13,WNW,300,5.0,11.0,83,0.00,,,0.00,,2013-07-29 09:33:00,
2013-07-29 05:43:00,57.0,52.0,30.14,NW,305,6.0,19.0,83,0.00,,,0.00,,2013-07-29 09:43:00,
2013-07-29 05:53:00,57.0,52.0,30.14,NNW,329,4.0,12.0,82,0.00,,,0.00,,2013-07-29 09:53:00,
2013-07-29 06:04:00,57.0,52.0,30.14,NNW,329,4.0,12.0,82,0.00,,,0.00,,2013-07-29 10:04:00,
2013-07-29 06:14:00,57.0,51.0,30.14,WNW,301,5.0,12.0,81,0.00,,,0.00,,2013-07-29 10:14:00,
2013-07-29 06:25:00,57.0,51.0,30.14,NW,314,5.0,14.0,81,0.00,,,0.00,,2013-07-29 10:25:00,
2013-07-29 06:37:00,57.0,51.0,30.14,NW,314,5.0,14.0,81,0.00,,,0.00,,2013-07-29 10:37:00,
2013-07-29 06:48:00,57.0,51.0,30.14,NW,313,4.0,14.0,79,0.00,,,0.00,,2013-07-29 10:48:00,
2013-07-29 06:54:00,57.0,51.0,30.15,NW,314,5.0,14.0,79,0.00,,,0.00,,2013-07-29 10:54:00,
2013-07-29 07:05:00,57.0,51.0,30.15,NW,314,5.0,14.0,79,0.00,,,0.00,,2013-07-29 11:05:00,
2013-07-29 07:15:00,57.0,51.0,30.15,NNW,329,5.0,16.0,79,0.00,,,0.00,,2013-07-29 11:15:00,
2013-07-29 07:24:00,57.0,51.0,30.16,NW,311,5.0,13.0,79,0.00,,,0.00,,2013-07-29 11:24:00,
2013-07-29 07:37:00,57.0,51.0,30.16,NW,311,5.0,13.0,79,0.00,,,0.00,,2013-07-29 11:37:00,
2013-07-29 07:56:00,57.0,51.0,30.16,NW,313,5.0,13.0,79,0.00,,,0.00,,2013-07-29 11:56:00,
2013-07-29 08:09:00,57.0,51.0,30.16,NW,313,5.0,13.0,79,0.00,,,0.00,,2013-07-29 12:09:00,
2013-07-29 08:49:00,57.0,50.0,30.18,NW,320,4.0,10.0,78,0.00,,,0.00,,2013-07-29 12:49:00,
2013-07-29 08:58:00,57.0,50.0,30.18,NW,323,3.0,12.0,78,0.00,,,0.00,,2013-07-29 12:58:00,
2013-07-29 09:17:00,57.0,50.0,30.18,NW,316,2.0,9.0,77,0.00,,,0.00,,2013-07-29 13:17:00,
2013-07-29 09:28:00,58.0,50.0,30.19,North,359,3.0,11.0,76,0.00,,,0.00,,2013-07-29 13:28:00,
2013-07-29 09:37:00,58.0,50.0,30.19,North,359,3.0,11.0,76,0.00,,,0.00,,2013-07-29 13:37:00,
2013-07-29 09:45:00,58.0,50.0,30.19,WNW,292,2.0,13.0,76,0.00,,,0.00,,2013-07-29 13:45:00,
2013-07-29 09:54:00,58.0,50.0,30.19,WNW,292,2.0,13.0,76,0.00,,,0.00,,2013-07-29 13:54:00,
2013-07-29 10:07:00,58.0,50.0,30.19,WNW,292,2.0,13.0,76,0.00,,,0.00,,2013-07-29 14:07:00,
2013-07-29 10:13:00,59.0,51.0,30.19,WNW,299,1.0,9.0,75,0.00,,,0.00,,2013-07-29 14:13:00,
2013-07-29 10:28:00,59.0,51.0,30.19,WNW,299,1.0,9.0,75,0.00,,,0.00,,2013-07-29 14:28:00,
2013-07-29 10:35:00,60.0,52.0,30.19,NW,304,2.0,11.0,74,0.00,,,0.00,,2013-07-29 14:35:00,
2013-07-29 10:46:00,60.0,52.0,30.19,SSW,196,1.0,9.0,74,0.00,,,0.00,,2013-07-29 14:46:00,
2013-07-29 10:55:00,60.0,52.0,30.19,SSW,196,1.0,9.0,74,0.00,,,0.00,,2013-07-29 14:55:00,
2013-07-29 11:15:00,61.0,52.0,30.19,WNW,297,4.0,7.0,71,0.00,,,0.00,,2013-07-29 15:15:00,
2013-07-29 11:37:00,62.0,52.0,30.20,NW,304,3.0,8.0,71,0.00,,,0.00,,2013-07-29 15:37:00,
2013-07-29 11:45:00,62.0,52.0,30.20,West,271,2.0,7.0,71,0.00,,,0.00,,2013-07-29 15:45:00,
2013-07-29 11:54:00,62.0,52.0,30.20,West,271,2.0,7.0,71,0.00,,,0.00,,2013-07-29 15:54:00,
2013-07-29 12:08:00,64.0,54.0,30.20,West,273,1.0,5.0,69,0.00,,,0.00,,2013-07-29 16:08:00,
2013-07-29 12:13:00,64.0,52.0,30.20,West,266,1.0,8.0,66,0.00,,,0.00,,2013-07-29 16:13:00,
2013-07-29 12:39:00,65.0,54.0,30.20,WNW,283,1.0,6.0,68,0.00,,,0.00,,2013-07-29 16:39:00,
2013-07-29 12:47:00,66.0,53.0,30.20,West,271,1.0,7.0,62,0.00,,,0.00,,2013-07-29 16:47:00,
2013-07-29 13:08:00,67.0,53.0,30.20,WNW,298,3.0,8.0,61,0.00,,,0.00,,2013-07-29 17:08:00,
2013-07-29 13:41:00,68.0,52.0,30.20,WNW,282,4.0,7.0,56,0.00,,,0.00,,2013-07-29 17:41:00,
2013-07-29 13:57:00,67.0,53.0,30.20,NNW,328,3.0,9.0,60,0.00,,,0.00,,2013-07-29 17:57:00,
2013-07-29 14:07:00,67.0,53.0,30.20,SW,230,1.0,9.0,60,0.00,,,0.00,,2013-07-29 18:07:00,
2013-07-29 14:15:00,68.0,53.0,30.20,WNW,291,1.0,8.0,58,0.00,,,0.00,,2013-07-29 18:15:00,
2013-07-29 14:55:00,69.0,52.0,30.19,NW,320,1.0,6.0,55,0.00,,,0.00,,2013-07-29 18:55:00,
2013-07-29 15:16:00,68.0,51.0,30.20,West,274,2.0,9.0,55,0.00,,,0.00,,2013-07-29 19:16:00,
2013-07-29 15:45:00,68.0,51.0,30.19,West,270,3.0,12.0,54,0.00,,,0.00,,2013-07-29 19:45:00,
2013-07-29 16:08:00,68.0,50.0,30.19,WNW,282,4.0,13.0,53,0.00,,,0.00,,2013-07-29 20:08:00,
2013-07-29 16:56:00,69.0,54.0,30.18,NW,317,2.0,8.0,58,0.00,,,0.00,,2013-07-29 20:56:00,
2013-07-29 17:06:00,69.0,54.0,30.18,NW,317,2.0,8.0,58,0.00,,,0.00,,2013-07-29 21:06:00,
2013-07-29 17:19:00,69.0,50.0,30.18,West,275,3.0,9.0,51,0.00,,,0.00,,2013-07-29 21:19:00,
2013-07-29 17:36:00,69.0,51.0,30.19,North,358,3.0,7.0,52,0.00,,,0.00,,2013-07-29 21:36:00,
2013-07-29 17:57:00,70.0,52.0,30.19,West,272,4.0,10.0,53,0.00,,,0.00,,2013-07-29 21:57:00,
2013-07-29 18:04:00,70.0,52.0,30.19,West,274,3.0,10.0,53,0.00,,,0.00,,2013-07-29 22:04:00,
2013-07-29 18:17:00,70.0,54.0,30.19,West,274,3.0,8.0,56,0.00,,,0.00,,2013-07-29 22:17:00,
2013-07-29 18:37:00,70.0,53.0,30.19,WNW,300,1.0,8.0,55,0.00,,,0.00,,2013-07-29 22:37:00,
2013-07-29 19:06:00,69.0,53.0,30.21,North,0,0.0,8.0,56,0.00,,,0.00,,2013-07-29 23:06:00,
2013-07-29 19:26:00,69.0,54.0,30.21,North,0,0.0,6.0,58,0.00,,,0.00,,2013-07-29 23:26:00,
2013-07-29 19:35:00,70.0,55.0,30.21,North,0,0.0,3.0,60,0.00,,,0.00,,2013-07-29 23:35:00,
2013-07-29 19:45:00,70.0,55.0,30.22,North,0,0.0,4.0,60,0.00,,,0.00,,2013-07-29 23:45:00,
2013-07-29 19:55:00,70.0,55.0,30.22,North,0,0.0,4.0,60,0.00,,,0.00,,2013-07-29 23:55:00,
2013-07-29 20:08:00,69.0,58.0,30.23,North,0,0.0,2.0,68,0.00,,,0.00,,2013-07-30 00:08:00,
2013-07-29 20:19:00,67.0,56.0,30.23,North,0,0.0,1.0,69,0.00,,,0.00,,2013-07-30 00:19:00,
2013-07-29 20:26:00,67.0,56.0,30.23,North,0,0.0,1.0,69,0.00,,,0.00,,2013-07-30 00:26:00,
2013-07-29 20:35:00,63.0,55.0,30.23,North,0,0.0,2.0,75,0.00,,,0.00,,2013-07-30 00:35:00,
2013-07-29 20:54:00,61.0,54.0,30.24,North,0,0.0,1.0,79,0.00,,,0.00,,2013-07-30 00:54:00,
2013-07-29 21:16:00,59.0,53.0,30.24,North,0,0.0,1.0,81,0.00,,,0.00,,2013-07-30 01:16:00,
2013-07-29 21:38:00,58.0,54.0,30.25,North,0,0.0,1.0,85,0.00,,,0.00,,2013-07-30 01:38:00,
2013-07-29 21:56:00,57.0,53.0,30.25,North,0,0.0,1.0,87,0.00,,,0.00,,2013-07-30 01:56:00,
2013-07-29 22:06:00,57.0,53.0,30.26,North,0,0.0,1.0,88,0.00,,,0.00,,2013-07-30 02:06:00,
2013-07-29 22:14:00,56.0,53.0,30.27,North,0,0.0,0.0,89,0.00,,,0.00,,2013-07-30 02:14:00,
2013-07-29 22:38:00,56.0,52.0,30.28,North,0,0.0,1.0,88,0.00,,,0.00,,2013-07-30 02:38:00,
2013-07-29 23:08:00,58.0,52.0,30.29,North,0,0.0,3.0,80,0.00,,,0.00,,2013-07-30 03:08:00,
2013-07-29 23:19:00,58.0,52.0,30.29,North,0,0.0,3.0,80,0.00,,,0.00,,2013-07-30 03:19:00,
2013-07-29 23:25:00,58.0,52.0,30.29,North,0,0.0,3.0,80,0.00,,,0.00,,2013-07-30 03:25:00,